Погода в Новицком

Россия / Приморский край     43°03′16″N   133°10′24″E
темп.,
°C
ветер,
м/с
пор.,
м/с
влажн.,
%
обл.,
%
осадки,
мм/ч
давл.,
гПа
погр.,
м
14 апреля, ср
ср1401:00−1сз39499 0.0 1012957
04:00−1сз310455 0.0 10131177
07:00−2зсз27471 0.0 1014806
10:00+2зсз36280 0.0 10131390
13:00+4зюз7103459 0.0 10122417
16:00+4юз6113924 0.0 10121697
19:00+3юз37658 0.1 1012802
22:000юз11775 0.1 101414
15 апреля, чт
чт1501:000з11920 0.0 101411
04:00−1ссз11863 0.0 101512
07:000с11655 0.0 101615
10:00+7юз27295 0.0 1016683
13:00+10зюз6102991 0.0 10161331
16:00+10юз4826100 0.0 10161136
19:00+7ю2251100 0.0 101635
22:00+5ююв1166100 0.0 101815
16 апреля, пт
пт1601:00+3юв228192 0.0 101819
04:00+4юв2293100 0.0 101689
07:00+5юв3991100 0.0 1015615
10:00+6юв61174100 0.1 10141021
13:00+7юв71278100 0.1 10111056
16:00+7юв51389100 0.6 1007862
19:00+6ююв3995100 3.4 10061139
22:00+6ююв3118749 7.6 10051079
17 апреля, сб
сб1701:00+4ю2795100 2.0 1005563
04:00+3ююв2297100 2.4 100492
07:00+2юв229651 0.3 100565
10:00+6ююв347389 0.3 10051035
13:00+8юв226059 0.1 10041341
16:00+8юз456369 0.7 10041183
19:00+6зюз476484 0.1 1006665
22:00+4зюз1476100 0.1 1008178
18 апреля, вс
вс1801:00+2ссз118184 0.0 100814
04:00+3ссз2386100 0.0 1008114
07:00+3ссз2991100 0.1 1009889
10:00+3сз2995100 0.3 1010832
13:00+6ссз497396 0.1 10101158
16:00+8ссз5106360 0.1 10091330
19:00+7ссз412715 0.0 10101170
22:00+3ссз22881 0.0 101227